Weather in Salto del Guairá

Paraguay     24°00′44″S   54°21′42″W
temp.,
°C
wind,
m/s
gust,
m/s
humid.,
%
clouds,
%
prec.,
mm/h
press.,
hPa
HPBL,
m
17 april, sat
sat1723:00+19e119018 0.0 101444
02:00+18e119080 0.0 101342
05:00+18ese01915 0.0 101237
08:00+22e11732 0.0 1015272
11:00+27ene11555 0.0 1013860
14:00+28se235345 0.6 10101380
17:00+24e117271 0.1 101011
20:00+24ssw2264100 0.1 101120
18 april, sun
sun1823:00+21s22722 0.0 101223
02:00+20s22755 0.0 101119
05:00+19ese22800 0.0 101257
08:00+23e23650 0.0 1014297
11:00+28e11490 0.0 1013833
14:00+29s22420 0.0 10101283
17:00+25s22520 0.0 101014
20:00+22s22560 0.0 101112
19 april, mon
mon1923:00+20sw22620 0.0 101231
02:00+19ese23680 0.0 101258
05:00+19ene36760 0.0 1014162
08:00+22ene47610 0.0 1016442
11:00+27ne35490 0.0 1015765
14:00+29ene22410 0.0 10121364
17:00+25e11540 0.0 101211
20:00+22e11595 0.0 101311
20 april, tue
tue2023:00+20e126849 0.0 101314
02:00+19e23720 0.0 101254
05:00+18ene34710 0.0 101492
08:00+22ne48630 0.0 1016478
11:00+27ne46480 0.0 1015812
14:00+29ene23400 0.0 10121181
17:00+25ese11530 0.0 101211
20:00+22ene12570 0.0 101311
21 april, wed
wed2123:00+21ese23610 0.0 101348
02:00+19e23670 0.0 101361
05:00+18e37650 0.0 1014149
08:00+21ene49590 0.0 1016472
11:00+27ne47450 0.0 1015837
14:00+29ene34360 0.0 10111279
17:00+25e224819 0.0 101016
20:00+22e38550 0.0 1012122